Location: Del Amo
(33.8464°N, 118.2104°W)
Time: 04:05:50
(UTC+00:00)

Hubble Space Telescope - Visible Passes

Search period start: 20 May 2026 00:00
Search period end: 30 May 2026 00:00
Orbit: 473 x 476 km, 28.5° (Epoch: 19 May)

Date Brightness Start Highest point End Pass type
(mag) Time Alt. Az. Time Alt. Az. Time Alt. Az.
23 May 2.3 12:09:06 10° SSW 12:11:55 20° SSE 12:14:43 10° ESE visible
24 May 2.3 11:38:45 15° SSW 11:40:21 20° SSE 11:43:09 10° ESE visible
25 May 2.2 11:08:47 20° SSE 11:08:47 20° SSE 11:11:34 10° ESE visible
26 May 2.8 10:38:48 15° SE 10:38:48 15° SE 10:39:59 10° ESE visible
26 May 1.4 12:13:06 10° WSW 12:16:32 34° S 12:19:57 10° ESE visible
27 May 1.4 11:42:49 19° SW 11:44:57 34° S 11:48:22 10° ESE visible
28 May 1.3 11:12:52 32° SSW 11:13:21 34° S 11:16:46 10° ESE visible
29 May 1.9 10:42:58 27° SE 10:42:58 27° SE 10:45:10 10° ESE visible
